CCA1841 ZSJN-ZUGY

Flight info

Callsign CCA1841
Flight time N/A
Altitude 34100
Route EXUVU W4 LIMGI W152 TAREX W278 AVDIG W276 ARELA W30 TAMUS W180 MEMAG
Aircraft B77W/H-MSDE2E3FGHIRWXY/LB1

Departure

Time N/A
Airport Jinan Yaoqiang International Airport (ZSJN)

Arrival

Time 2026-04-19 13:36
Airport Guiyang Longdongbao International Airport (ZUGY)
Time Latitude Longitude Altitude Speed Heading
2026-04-19 12:49 31.71049 107.48988 34084 ft 502 kts 200°
2026-04-19 12:50 31.64356 107.46687 34074 ft 500 kts 200°
2026-04-19 12:50 31.57680 107.44395 34068 ft 500 kts 200°
2026-04-19 12:51 31.50987 107.42100 34051 ft 500 kts 200°
2026-04-19 12:51 31.44320 107.39816 34042 ft 501 kts 200°
2026-04-19 12:52 31.37811 107.36937 34035 ft 495 kts 210°
2026-04-19 12:52 31.31652 107.33263 34024 ft 496 kts 210°
2026-04-19 12:53 31.25524 107.29597 34008 ft 496 kts 210°
2026-04-19 12:53 31.19397 107.25942 33997 ft 495 kts 210°
2026-04-19 12:54 31.13238 107.22273 33996 ft 497 kts 210°
2026-04-19 12:54 31.07068 107.18605 34004 ft 497 kts 210°
2026-04-19 12:55 31.00925 107.14959 33986 ft 495 kts 210°
2026-04-19 12:55 30.94786 107.11320 33986 ft 497 kts 211°
2026-04-19 12:56 30.88618 107.07671 33980 ft 498 kts 210°
2026-04-19 12:56 30.82435 107.04016 33972 ft 497 kts 210°
2026-04-19 12:57 30.76256 107.00371 33966 ft 499 kts 211°
2026-04-19 12:57 30.69753 106.97527 33965 ft 507 kts 195°
2026-04-19 12:58 30.62632 106.96845 33984 ft 515 kts 184°
2026-04-19 12:58 30.55465 106.96922 33992 ft 515 kts 183°
2026-04-19 12:59 30.48280 106.97009 34003 ft 514 kts 183°
2026-04-19 12:59 30.41122 106.97095 33993 ft 518 kts 183°
2026-04-19 13:00 30.33902 106.97176 33974 ft 516 kts 184°
2026-04-19 13:00 30.26721 106.97091 33970 ft 519 kts 185°
2026-04-19 13:01 30.19525 106.96993 33957 ft 518 kts 184°
2026-04-19 13:01 30.12261 106.96898 33969 ft 522 kts 185°
2026-04-19 13:02 30.05028 106.96808 33959 ft 519 kts 184°
2026-04-19 13:02 29.97799 106.96719 33953 ft 519 kts 184°
2026-04-19 13:03 29.90539 106.96632 33947 ft 520 kts 184°
2026-04-19 13:03 29.83327 106.96545 33933 ft 520 kts 184°
2026-04-19 13:04 29.76103 106.96458 33928 ft 518 kts 185°
2026-04-19 13:04 29.68888 106.96372 33926 ft 518 kts 185°
2026-04-19 13:05 29.61701 106.96287 33940 ft 518 kts 185°
2026-04-19 13:05 29.54490 106.96201 33938 ft 516 kts 185°
2026-04-19 13:06 29.47286 106.96116 33965 ft 517 kts 185°
2026-04-19 13:06 29.40071 106.96028 33975 ft 516 kts 185°
2026-04-19 13:07 29.32902 106.95941 33985 ft 516 kts 185°
2026-04-19 13:07 29.25731 106.95855 34002 ft 512 kts 185°
2026-04-19 13:08 29.18553 106.95768 34015 ft 513 kts 185°
2026-04-19 13:08 29.11398 106.95681 34015 ft 513 kts 185°
2026-04-19 13:09 29.04254 106.95596 34028 ft 511 kts 185°
2026-04-19 13:09 28.97131 106.95510 34040 ft 512 kts 185°
2026-04-19 13:10 28.89983 106.95425 34017 ft 509 kts 185°
2026-04-19 13:10 28.82906 106.95340 34012 ft 507 kts 185°
2026-04-19 13:11 28.75850 106.95255 33994 ft 506 kts 185°
2026-04-19 13:11 28.68764 106.95170 34007 ft 505 kts 185°
2026-04-19 13:12 28.61792 106.95090 34004 ft 494 kts 185°
2026-04-19 13:12 28.54968 106.95009 33983 ft 485 kts 185°
2026-04-19 13:13 28.48277 106.94930 33977 ft 476 kts 185°
2026-04-19 13:13 28.41691 106.94852 33935 ft 469 kts 185°
2026-04-19 13:14 28.38415 106.94812 33701 ft 469 kts 185°
2026-04-19 13:14 28.35168 106.94772 33316 ft 473 kts 185°
2026-04-19 13:14 28.31817 106.94731 32945 ft 477 kts 185°
2026-04-19 13:14 28.28492 106.94692 32749 ft 478 kts 185°
2026-04-19 13:15 28.21855 106.94660 32597 ft 475 kts 181°
2026-04-19 13:15 28.18568 106.94847 32407 ft 476 kts 180°
2026-04-19 13:15 28.15201 106.95058 31807 ft 484 kts 180°
2026-04-19 13:16 28.11797 106.95266 30768 ft 490 kts 180°
2026-04-19 13:16 28.08410 106.95470 30193 ft 484 kts 180°
2026-04-19 13:16 28.05103 106.95664 29695 ft 477 kts 179°
2026-04-19 13:16 28.01791 106.95849 29132 ft 471 kts 179°
2026-04-19 13:17 27.98533 106.96027 28578 ft 467 kts 179°
2026-04-19 13:17 27.95301 106.96201 28021 ft 463 kts 179°
2026-04-19 13:17 27.92083 106.96373 27444 ft 462 kts 179°
2026-04-19 13:17 27.88867 106.96545 26869 ft 460 kts 179°
2026-04-19 13:18 27.85682 106.96714 26280 ft 458 kts 179°
2026-04-19 13:18 27.82499 106.96883 25685 ft 455 kts 179°
2026-04-19 13:18 27.79359 106.97049 25097 ft 452 kts 179°
2026-04-19 13:18 27.76230 106.97214 24486 ft 448 kts 179°
2026-04-19 13:19 27.73107 106.97379 23883 ft 446 kts 179°
2026-04-19 13:19 27.70011 106.97542 23293 ft 444 kts 179°
2026-04-19 13:19 27.66922 106.97704 22680 ft 442 kts 179°
2026-04-19 13:19 27.63887 106.97864 22096 ft 439 kts 179°
2026-04-19 13:20 27.60813 106.98025 21479 ft 437 kts 179°
2026-04-19 13:20 27.57785 106.98184 20861 ft 434 kts 179°
2026-04-19 13:20 27.54783 106.98341 20261 ft 431 kts 178°
2026-04-19 13:20 27.51799 106.98498 19619 ft 427 kts 178°
2026-04-19 13:21 27.48847 106.98652 19003 ft 422 kts 178°
2026-04-19 13:21 27.45942 106.98784 18404 ft 418 kts 179°
2026-04-19 13:21 27.43059 106.98812 17777 ft 413 kts 180°
2026-04-19 13:21 27.40180 106.98830 17175 ft 407 kts 180°
2026-04-19 13:22 27.37379 106.98850 16587 ft 403 kts 180°
2026-04-19 13:22 27.34561 106.98873 15990 ft 399 kts 180°
2026-04-19 13:22 27.31807 106.98898 15396 ft 395 kts 180°
2026-04-19 13:22 27.29083 106.98923 14807 ft 392 kts 180°
2026-04-19 13:23 27.26376 106.98949 14221 ft 388 kts 180°
2026-04-19 13:23 27.23702 106.98975 13816 ft 378 kts 180°
2026-04-19 13:23 27.21130 106.98779 13694 ft 362 kts 190°
2026-04-19 13:23 27.18729 106.98029 13584 ft 346 kts 198°
2026-04-19 13:24 27.16494 106.97163 13464 ft 332 kts 199°
2026-04-19 13:24 27.14349 106.96309 13335 ft 320 kts 199°
2026-04-19 13:24 27.12290 106.95468 13209 ft 309 kts 199°
2026-04-19 13:24 27.10306 106.94646 13085 ft 298 kts 199°
2026-04-19 13:25 27.08397 106.93849 12960 ft 288 kts 200°
2026-04-19 13:25 27.06551 106.93077 12837 ft 278 kts 200°
2026-04-19 13:25 27.04768 106.92331 12719 ft 268 kts 200°
2026-04-19 13:25 27.03047 106.91605 12591 ft 260 kts 200°
2026-04-19 13:26 27.01364 106.90860 12263 ft 260 kts 201°
2026-04-19 13:26 26.99664 106.90160 11915 ft 261 kts 196°
2026-04-19 13:26 26.97918 106.89616 11596 ft 260 kts 194°
2026-04-19 13:26 26.96172 106.89110 11283 ft 259 kts 194°
2026-04-19 13:27 26.94425 106.88625 10974 ft 258 kts 193°
2026-04-19 13:27 26.92688 106.88158 10788 ft 251 kts 193°
2026-04-19 13:27 26.91016 106.87706 10633 ft 242 kts 193°
2026-04-19 13:27 26.89461 106.87283 10359 ft 219 kts 194°
2026-04-19 13:28 26.88014 106.86893 10108 ft 208 kts 193°
2026-04-19 13:28 26.86615 106.86550 9864 ft 204 kts 192°
2026-04-19 13:28 26.85265 106.86251 9624 ft 187 kts 191°
2026-04-19 13:28 26.84038 106.85993 9411 ft 172 kts 191°
2026-04-19 13:29 26.82883 106.85759 9206 ft 170 kts 190°
2026-04-19 13:29 26.81710 106.85529 8988 ft 168 kts 190°
2026-04-19 13:29 26.80559 106.85305 8771 ft 167 kts 189°
2026-04-19 13:29 26.79411 106.85085 8547 ft 166 kts 189°
2026-04-19 13:30 26.78283 106.84868 8335 ft 166 kts 189°
2026-04-19 13:30 26.77149 106.84648 8109 ft 163 kts 189°
2026-04-19 13:30 26.74919 106.84216 7683 ft 163 kts 189°
2026-04-19 13:31 26.73793 106.83995 7463 ft 162 kts 189°
2026-04-19 13:31 26.72688 106.83780 7245 ft 161 kts 188°
2026-04-19 13:31 26.71585 106.83566 7028 ft 159 kts 188°
2026-04-19 13:31 26.70501 106.83354 6813 ft 157 kts 188°
2026-04-19 13:32 26.69417 106.83144 6601 ft 158 kts 188°
2026-04-19 13:32 26.68344 106.82935 6390 ft 156 kts 188°
2026-04-19 13:32 26.67276 106.82727 6169 ft 151 kts 187°
2026-04-19 13:32 26.66289 106.82534 5972 ft 139 kts 187°
2026-04-19 13:33 26.65348 106.82353 5787 ft 135 kts 187°
2026-04-19 13:33 26.64412 106.82171 5610 ft 136 kts 188°
2026-04-19 13:33 26.63478 106.81988 5415 ft 138 kts 188°
2026-04-19 13:33 26.62525 106.81803 5240 ft 139 kts 188°
2026-04-19 13:34 26.61558 106.81615 5036 ft 140 kts 188°
2026-04-19 13:34 26.60603 106.81430 4817 ft 140 kts 188°
2026-04-19 13:34 26.59633 106.81242 4642 ft 140 kts 188°
2026-04-19 13:34 26.58649 106.81050 4451 ft 142 kts 188°
2026-04-19 13:35 26.57670 106.80861 4248 ft 142 kts 189°
2026-04-19 13:35 26.56693 106.80671 4061 ft 143 kts 189°
2026-04-19 13:35 26.55706 106.80479 3886 ft 144 kts 189°
2026-04-19 13:35 26.54709 106.80286 3751 ft 140 kts 190°
2026-04-19 13:36 26.53888 106.80132 3750 ft 97 kts 190°
2026-04-19 13:36 26.53363 106.80029 3750 ft 59 kts 189°
2026-04-19 13:36 26.53113 106.79917 3750 ft 4 kts 216°
2026-04-19 13:36 26.53106 106.79912 3750 ft 0 kts 216°
2026-04-19 13:37 26.53105 106.79911 3750 ft 1 kts 216°
2026-04-19 13:37 26.53074 106.79885 3750 ft 9 kts 219°
2026-04-19 13:37 26.53043 106.79811 3750 ft 13 kts 270°
2026-04-19 13:37 26.53103 106.79718 3750 ft 19 kts 353°
2026-04-19 13:38 26.53258 106.79738 3750 ft 25 kts 10°
2026-04-19 13:38 26.53452 106.79775 3750 ft 31 kts 11°
2026-04-19 13:38 26.53614 106.79806 3750 ft 21 kts 10°
2026-04-19 13:38 26.53758 106.79835 3750 ft 20 kts 10°
2026-04-19 13:39 26.53890 106.79861 3750 ft 18 kts 10°
2026-04-19 13:39 26.54013 106.79884 3750 ft 17 kts 10°
2026-04-19 13:39 26.54125 106.79906 3750 ft 15 kts 10°
2026-04-19 13:39 26.54236 106.79928 3750 ft 18 kts 10°
2026-04-19 13:40 26.54379 106.79956 3751 ft 23 kts 11°
2026-04-19 13:40 26.54554 106.79990 3751 ft 26 kts 10°
2026-04-19 13:40 26.54732 106.80026 3751 ft 25 kts 10°
2026-04-19 13:40 26.54838 106.80045 3751 ft 11 kts
2026-04-19 13:41 26.54918 106.80061 3751 ft 11 kts 10°
2026-04-19 13:41 26.54997 106.80077 3751 ft 11 kts 10°
2026-04-19 13:41 26.55060 106.80055 3751 ft 9 kts 306°
2026-04-19 13:41 26.55081 106.79991 3751 ft 7 kts 292°
2026-04-19 13:42 26.55115 106.79942 3751 ft 7 kts 308°
2026-04-19 13:42 26.55128 106.79916 3751 ft 0 kts 291°
2026-04-19 13:42 26.55131 106.79905 3751 ft 3 kts 288°
2026-04-19 13:42 26.55137 106.79881 3751 ft 0 kts 280°
2026-04-19 13:43 26.55139 106.79882 3751 ft 0 kts 280°